www.pogodaiklimat.ru
ПОГОДА в Пасо Роблс
Время
и дата
02:09 04.12
02:20 04.12
02:53 04.12
03:46 04.12
03:53 04.12
04:08 04.12
04:33 04.12
04:53 04.12
05:53 04.12
06:53 04.12
07:53 04.12
08:53 04.12
09:53 04.12
10:15 04.12
10:53 04.12
11:03 04.12
11:53 04.12
12:53 04.12
13:53 04.12
14:02 04.12
14:10 04.12
14:53 04.12
15:43 04.12
15:53 04.12
16:25 04.12
16:53 04.12
17:53 04.12
18:53 04.12
19:53 04.12
20:53 04.12
21:53 04.12
22:53 04.12
23:53 04.12
00:10 05.12
00:13 05.12
00:21 05.12
00:51 05.12
00:52 05.12
01:01 05.12
01:15 05.12
01:35 05.12
01:53 05.12
02:02 05.12
02:05 05.12
02:13 05.12
02:50 05.12
02:51 05.12
02:56 05.12
Ветер
(напр.,м/с)
Видим. Явления Облачность Т
(С)
Тd
(С)
f
(%)
Тe
(С)
Тes
(С)
Комфортность P
(гПа)
Po
(гПа)
Тmin
(С)
Tmax
(С)
R
(мм)
R24
(мм)
S
(см)
ЮЗ 5 6 км слабый дождь, дымка 10/10 150 m
[Ns]
+13.9 +12.8 93 +12 +12 985.4
ЮЗ 5 13 км слабый дождь 10/10 180 m
[Ns]
+13.3 +12.2 93 +11 +11 985.4
ЮЗ 3 6 км слабый дождь, дымка 10/10 630 m
[Ns]
+13.3 +12.2 93 +12 +12 1015.7 985.4
З 2 8 км дождь, дымка 10/10 300 m
[Ns]
+12.8 +11.7 93 +12 +12 985.8
З 2 8 км слабый дождь, дымка 10/10 300 m
[Ns]
+12.8 +11.7 93 +12 +12 1016.1 986.1 +12.8 +14.4 8.4 18.8
З 2 16 км слабый дождь 10/10 240 m
[Ns]
+12.8 +11.7 93 +12 +12 986.1
З 3 13 км слабый дождь 10/10 240 m
[Ns]
+12.2 +11.1 93 +11 +11 986.4
ЮЗ 2 16 км слабый дождь 10/10 480 m
[Ns]
+12.2 +11.1 93 +11 +11 1016.5 986.4
Ю 3 16 км 8/8 1650 м +11.7 +10.0 89 +10 +10 1017.1 986.8
ЮЗ 3 16 км ясно +10.6 +8.9 89 +8 +8 1018.0 987.7 0.5
Ю 3 16 км ясно +10.0 +8.9 93 +8 +8 1018.9 988.4
штиль 0 16 км ясно +11.7 +8.9 83 +11 +12 1019.7 989.4
штиль 0 16 км 2/2 810 м +12.8 +8.3 74 +12 +15 1020.2 989.7 +10.0 +12.8 0.5
штиль 0 16 км 8/8 810 м +13.3 +8.3 72 +13 +14 990.0
Ю 2 16 км 8/8 690 м +13.3 +9.4 77 +13 +13 1020.2 989.7
Ю 3 16 км 8/8 690 м +13.3 +10.0 80 +12 +13 989.7
В 2 16 км 10/10 870 м +13.9 +10.0 77 +13 +13 1019.5 989.1
штиль 0 16 км слабый дождь 10/10 930 m
[Ns]
+14.4 +10.0 75 +14 +14 1019.0 988.7
Ю 5 16 км 10/10 750 м +13.9 +10.6 80 +12 +12 1018.6 988.4
Ю 4 16 км слабый дождь 10/10 840 m
[Ns]
+13.9 +10.6 80 +12 +12 988.4
ЮЗ 2 16 км 10/10 840 м +13.9 +11.1 83 +13 +13 988.4
ЮЗ 2 16 км 10/0 2100 m
[Ac]
+15.0 +10.6 75 +15 +16 1018.2 988.1
ЮЗ 3 16 км 8/8 780 м +14.4 +10.0 75 +14 +14 987.7
ЮЗ 2 16 км 10/10 780 м +14.4 +9.4 72 +14 +14 1018.2 988.1 +12.8 +15.0
ЮЗ 3 16 км 8/8 870 м +13.9 +10.6 80 +13 +13 988.1
ЮЗ 3 16 км 5/5 1170 м +13.3 +10.0 80 +12 +12 1018.5 988.1
Ю 3 16 км ясно +11.7 +9.4 86 +10 +10 1018.6 988.1
ЮЗ 2 16 км ясно +10.6 +8.3 86 +9 +9 1018.6 988.1
штиль 0 16 км 2/2 810 м +9.4 +7.8 90 +9 +9 1018.6 988.1
Ю 2 16 км ясно +8.3 +7.2 93 +6 +6 1018.8 988.4
Ю 2 16 км ясно +8.3 +6.7 90 +6 +6 1018.8 988.4 +7.8 +14.4
штиль 0 16 км ясно +7.8 +6.1 89 +7 +7 1018.8 988.4
ЮВ 2 16 км ясно +7.2 +6.1 93 +5 +5 1018.4 988.1
Ю 2 4 км дымка 5/5 30 м +7.2 +6.1 93 +5 +5 988.1
Ю 2 2 км дымка ?/? +7.2 +6.1 93 +5 +5 988.1
штиль 0 800 м туман ?/? +7.2 +6.1 93 +6 +6 988.1
штиль 0 4 км дымка 8/8 30 м +7.0 +6.0 93 +6 +6 987.7
штиль 0 5 км дымка 8/8 30 м +6.7 +5.6 93 +6 +6 1018.3 987.7
штиль 0 16 км 5/5 30 м +6.7 +5.6 93 +6 +6 988.1
штиль 0 3 км дымка 2/2 60 м +6.7 +5.6 93 +6 +6 987.7
штиль 0 5 км дымка 2/2 60 м +6.7 +5.0 89 +6 +6 988.1
В 2 16 км 2/2 60 м +6.7 +5.0 89 +4 +4 1018.5 988.1
В 2 3 км дымка 5/5 60 м +6.7 +5.6 93 +4 +4 988.1
ЮВ 2 2 км дымка ?/? +6.7 +5.6 93 +4 +4 988.1
ЮВ 2 800 м туман ?/? +6.7 +5.6 93 +4 +4 987.7
штиль 0 3 км дымка 8/8 30 м +6.0 +5.0 93 +5 +5 988.1
штиль 0 4 км дымка 8/8 30 м +6.7 +5.0 89 +6 +6 1018.4 988.1
штиль 0 13 км 5/5 30 м +6.7 +5.0 89 +6 +6 988.1
Местоположение метеостанции Paso Robles Municipal Airport: широта 35.6728 долгота -120.6269 высота над уровнем моря 255 м.
В архиве по умолчанию представлена погода в Пасо Роблс за последние 1-2 суток. Обновление информации о фактической погоде в базе происходит ежечасно! Архивные данные за месяц целиком и за предыдущие месяцы Вы можете получить, выбрав интересующий диапазон дат из раскрывающегося списка и нажав кнопку "Ввод!".
Внимание! Архив погоды МЕТАР в базе сайта по станциям, не включенным в климатический монитор, хранится не более 60 дней. Нет смысла пытаться выбрать более раннюю дату.
*Определитесь, кто Вы:
Внимание! Время в таблицах - местное (без учета летнего времени). Для получения всемирного времени необходимо вычесть поправку, которая равна -8 ч.
Смотрите также архив погоды в соседних городах и на ближайших метеорологических станциях:
Партнеры нашего сайта:      
Пояснения к столбцам:
  • Ветер - указаны скорость ветра в м/с - средняя за 10 мин, порывы в срок и между сроками (в фигурных скобках) и направление, откуда дует ветер: С - северный,
  • СВ - северо-восточный, В - восточный, ЮВ - юго-восточный, Ю - южный, ЮЗ - юго-западный, З - западный, СЗ - северо-западный.
  • Видимость - горизонтальная дальность видимости в метрах или километрах. При видимости от 1 до 10 км при отсутствии осадков обычно наблюдается дымка, при ухудшении видимости до 1 км и менее - туман. В сухую погоду видимость может ухудшаться дымом, пылью или мглою.
  • Явления - указаны атмосферные явления, наблюдавшиеся в срок или в последний час перед сроком; фигурными скобками обозначены явления, наблюдавшиеся между сроками (за 1-3 часа до срока); квадратными скобками обозначены град или гололедные отложения с указанием их диаметра в мм.
  • Облачность - указаны через наклонную черту общая и нижняя облачность в баллах и высота нижней границы облаков в метрах; квадратными скобками обозначены формы облаков: Ci - перистые, Cs - перисто-слоистые, Cc - перисто-кучевые, Ac - высококучевые, As - высокослоистые, Sc - слоисто-кучевые, Ns - слоисто-дождевые, Cu - кучевые, Cb - кучево-дождевые. Подробнее классификацию облаков см. в Атласе облаков (PDF).
  • T - Температура воздуха - температура, измеренная на высоте 2 м над землей.
  • Td - Температура точки росы - температура, при понижении до которой содержащийся в воздухе водяной пар достигнет насыщения.
  • f - Относительная влажность воздуха - влажноcть воздуха, измеренная на высоте 2 м над землей.
  • Te - Эффективная температура - температура, которую ощущает одетый по сезону человек в тени. Характеристика душности погоды. При расчете учитывается влияние влажности воздуха и скорости ветра на теплоощущения человека.
  • Tes - Эффективная температура на солнце - температура, которую ощущает человек, с поправкой на солнечный нагрев. Характеристика знойности погоды. Зависит от высоты солнца над горизонтом, облачности и скорости ветра. Ночью, в пасмурную погоду, а также при ветре 12 м/с и более поправка равна нулю.
  • P - Атмосферное давление - приведенное к уровню моря атмосферное давление.
  • Po - Атмосферное давление - измеренное на уровне метеостанции атмосферное давление.
  • Tmin - Минимальная температура - минимум температуры воздуха на высоте 2 м над землей.
  • Tmax - Максимальная температура - максимум температуры воздуха на высоте 2 м над землей.
  • R - Количество осадков - Количество выпавших осадков за период времени, мм. При наведении курсора мыши на число - период времени, за который выпало указанное количество осадков.
  • R24 - Количество осадков - Количество выпавших осадков за 24 часа, мм.
  • S - Снежный покров - Высота снежного покрова, см. При наведении курсора мыши на число - состояние снежного покрова и степень покрытия местности в баллах.